Weather History for Greenville/Spartanburg, SC

Change the Weather History Date:

Monday, October 29, 2012

  Actual Average Record
Temperature  
Mean Temperature 51 °F 58 °F  
Max Temperature 56 °F 69 °F 84 °F (1927)
Min Temperature 46 °F 46 °F 25 °F (1976)
Degree Days  
Heating Degree Days 14 8  
Month to date heating degree days 120 136  
Since 1 July heating degree days 124 153  
Cooling Degree Days 0 1  
Month to date cooling degree days 33 48  
Year to date cooling degree days 1822 1710  
Moisture  
Dew Point 31 °F    
Average Humidity 51    
Maximum Humidity 60    
Minimum Humidity 41    
Precipitation  
Precipitation 0.00 in 0.10 in 2.35 in (1970)
Month to date precipitation 2.43 3.23  
Year to date precipitation 32.15 39.17  
Snow  
Snow 0.00 in 0.00 in 0.00 in ()
Month to date snowfall 0.0 0.0  
Since 1 July snowfall T 0.0  
Since 1 September snowfall 0.0 0.0  
Snow Depth 0.00 in    
Sea Level Pressure  
Sea Level Pressure 29.66 in    
Wind  
Wind Speed 11 mph (NW)    
Max Wind Speed 24 mph    
Max Gust Speed 37 mph    
Visibility 10 miles    
Events      
T = Trace of Precipitation, MM = Missing Value Source: NWS Daily Summary

Daily Weather History Graph

Daily Weather History Graph

Search for Another Location

Airport:

Trip Planner

Search our weather history database for the weather conditions in past years. The results will help you decide how hot, cold, wet, or windy it might be!

Date:

Astronomy

Oct. 29, 2012 Rise Set
Actual Time 7:47 AM EDT 6:37 PM EDT
Civil Twilight 7:21 AM EDT 7:03 PM EDT
Nautical Twilight 6:51 AM EDT 7:33 PM EDT
Astronomical Twilight 6:22 AM EDT 8:02 PM EDT
Moon 6:30 PM EDT (10/29) 7:35 AM EDT (10/29)
Length of Visible Light 11h 41m
Length of Day
10h 49m
Full, 100% of the Moon is Illuminated
Oct 29
Full
Oct 29
Full
Nov 6
Last Quarter
Nov 13
New
Nov 20
First Quarter

Hourly Weather History & Observations

Time (EDT) Temp. Windchill Dew Point Humidity Pressure Visibility Wind Dir Wind Speed Gust Speed Precip Events Conditions
12:53 AM 46.9 °F - 33.1 °F 59% 29.72 in 10.0 mi NW 6.9 mph - N/A   Clear
1:53 AM 46.9 °F - 33.1 °F 59% 29.70 in 10.0 mi NNW 9.2 mph 17.3 mph N/A   Clear
2:53 AM 46.9 °F - 32.0 °F 56% 29.70 in 10.0 mi North 10.4 mph 21.9 mph N/A   Clear
3:53 AM 46.9 °F - 32.0 °F 56% 29.69 in 10.0 mi NNW 11.5 mph 19.6 mph N/A   Clear
4:53 AM 46.9 °F - 30.9 °F 54% 29.68 in 10.0 mi NNW 9.2 mph 17.3 mph N/A   Clear
5:53 AM 46.9 °F - 30.9 °F 54% 29.69 in 10.0 mi NW 5.8 mph - N/A   Clear
6:53 AM 46.0 °F 41.4 °F 30.9 °F 56% 29.68 in 10.0 mi NNW 9.2 mph 16.1 mph N/A   Clear
7:53 AM 46.9 °F - 30.9 °F 54% 29.69 in 10.0 mi NNW 11.5 mph 23.0 mph N/A   Clear
8:53 AM 48.0 °F - 32.0 °F 54% 29.70 in 10.0 mi NNW 12.7 mph 19.6 mph N/A   Clear
9:53 AM 50.0 °F - 32.0 °F 50% 29.69 in 10.0 mi North 10.4 mph 20.7 mph N/A   Clear
10:53 AM 53.1 °F - 32.0 °F 45% 29.69 in 10.0 mi NNW 11.5 mph 31.1 mph N/A   Clear
11:53 AM 54.0 °F - 32.0 °F 43% 29.69 in 10.0 mi NW 15.0 mph 33.4 mph N/A   Scattered Clouds
12:53 PM 55.9 °F - 33.1 °F 42% 29.68 in 10.0 mi NNW 16.1 mph 23.0 mph N/A   Scattered Clouds
1:53 PM 55.0 °F - 32.0 °F 42% 29.66 in 10.0 mi NNW 12.7 mph 32.2 mph N/A   Partly Cloudy
2:53 PM 54.0 °F - 32.0 °F 43% 29.64 in 10.0 mi NW 12.7 mph 35.7 mph N/A   Clear
3:53 PM 52.0 °F - 32.0 °F 47% 29.63 in 10.0 mi NNW 15.0 mph 26.5 mph N/A   Mostly Cloudy
4:53 PM 50.0 °F - 30.0 °F 46% 29.63 in 10.0 mi NW 13.8 mph 25.3 mph N/A   Overcast
5:53 PM 48.9 °F - 28.9 °F 46% 29.63 in 10.0 mi NW 8.1 mph 20.7 mph N/A   Overcast
6:53 PM 48.0 °F - 28.0 °F 46% 29.63 in 10.0 mi NNW 16.1 mph 29.9 mph N/A   Overcast
7:53 PM 46.9 °F - 28.0 °F 48% 29.62 in 10.0 mi WNW 8.1 mph - N/A   Overcast
8:53 PM 46.9 °F - 28.0 °F 48% 29.61 in 10.0 mi NW 6.9 mph 23.0 mph N/A   Overcast
9:53 PM 46.9 °F - 28.9 °F 50% 29.61 in 10.0 mi NW 10.4 mph 17.3 mph N/A   Overcast
10:53 PM 48.0 °F - 28.0 °F 46% 29.60 in 10.0 mi NW 8.1 mph - N/A   Overcast
11:53 PM 46.9 °F - 28.0 °F 48% 29.57 in 10.0 mi NW 9.2 mph 16.1 mph N/A   Overcast